Location: Le Petit-Vavre
(46.5081°N, 1.5239°E)
Time: 17:22:45
(UTC+00:00)

ASTEX 1 - Pass Details

Date: 03 March 2021
Orbit: 720 x 743 km, 92.7° (Epoch: 16 April)

Event Time Altitude Azimuth Distance (km) Brightness Sun altitude
Rises 19:20:38 0° 11° (N) 3,150 6.7 -17.6°
Reaches altitude 10° 19:23:02 10° 17° (NNE) 2,222 5.8 -18.0°
Maximum altitude 19:27:44 45° 91° (E) 978 3.6 -18.8°
Enters shadow 19:30:17 24° 150° (SSE) 1,453 4.6 -19.2°
